GEFSSGP_con_probscp_210.txt.gz
Probability
10 6 3 1 0 0 0 0 0 0 0 0 0 0 0 0 0 0 0 1 2 2 3 3 3 3 3 3 3 3 3 3 3 3 3 4 4 4 3 3 3 4 5 5 4 3 3 3 3
6 4 2 1 0 0 0 0 0 0 0 0 0 0 0 0 0 0 0 0 1 2 3 3 3 3 3 3 3 3 3 3 3 3 3 3 4 3 3 3 3 3 4 4 3 3 3 3 3
4 3 1 0 0 0 0 0 1 2 1 0 0 0 0 0 0 0 0 0 1 2 3 3 3 3 3 3 3 4 4 4 4 3 3 3 3 3 3 3 3 3 3 3 3 3 3 3 3
3 2 1 0 0 0 0 1 2 3 2 1 0 0 0 0 0 0 0 1 2 3 3 4 4 3 3 3 4 5 6 6 5 4 3 3 3 3 3 3 3 3 3 3 3 3 3 3 3
1 1 0 0 0 0 0 1 2 4 3 1 0 0 1 2 2 1 1 1 2 3 4 4 4 4 3 3 4 5 6 6 5 4 3 3 3 3 3 3 3 3 3 3 3 3 3 2 2
0 0 0 0 0 0 0 0 1 3 3 1 0 0 1 3 4 4 2 1 2 3 3 4 4 3 3 3 3 4 4 4 4 3 3 3 3 3 3 3 3 3 3 3 3 2 2 1 1
0 0 0 0 0 0 0 0 0 1 2 2 1 0 1 3 6 5 3 1 1 1 2 3 3 3 3 3 3 3 3 3 3 4 4 3 3 3 3 3 3 3 3 3 2 1 0 0 0
0 0 0 0 0 0 0 0 0 1 2 2 1 0 2 5 7 6 3 1 0 0 1 1 2 3 3 3 3 3 3 3 4 5 5 4 3 3 3 3 3 3 2 1 1 0 0 0 0
0 0 0 0 0 0 0 0 0 0 1 1 1 1 5 9 10 8 4 1 0 0 0 0 1 1 2 2 2 2 3 3 4 5 4 3 2 2 2 2 2 1 1 0 0 0 0 0 0
0 0 0 0 0 0 0 0 0 0 0 0 1 3 7 12 13 10 6 2 0 0 0 1 1 1 1 1 1 1 1 3 3 3 3 1 1 1 1 1 1 0 0 0 0 0 0 0 0
0 0 0 0 0 0 0 0 0 0 0 0 1 3 7 12 13 11 7 3 1 0 0 1 2 1 0 0 0 0 1 3 3 3 2 2 1 1 0 0 0 0 0 0 0 0 0 0 0
0 0 0 0 0 0 0 0 0 0 0 0 1 3 6 10 12 10 6 3 1 1 1 2 3 2 0 0 0 1 2 3 3 3 3 2 2 2 1 0 0 0 0 0 0 0 0 0 0
0 0 0 0 0 0 0 0 0 0 1 1 2 4 6 9 11 8 5 4 5 4 4 4 5 4 1 0 1 2 3 3 3 3 3 3 3 3 2 1 0 0 0 0 0 0 0 0 0
0 0 0 0 1 1 1 1 1 1 4 4 4 6 9 11 11 8 5 7 9 8 6 6 7 6 3 3 4 4 4 3 3 3 3 3 3 3 3 2 1 0 0 0 0 0 0 0 0
0 0 0 0 0 1 1 1 2 3 5 7 8 11 13 14 14 11 7 7 9 9 7 6 6 6 5 5 6 5 4 4 3 3 3 4 5 4 4 3 2 1 0 0 0 0 0 0 0
0 0 0 0 0 0 1 1 2 3 6 10 14 18 17 15 14 12 9 8 8 8 7 4 2 3 4 5 5 4 4 3 3 3 4 5 6 6 4 3 2 1 0 0 0 0 0 0 0
0 0 0 0 0 1 2 2 3 5 8 12 17 20 18 15 13 12 11 10 8 7 5 2 1 3 3 4 3 3 3 3 3 3 3 5 6 5 4 4 3 1 0 0 0 0 0 0 0
0 0 0 0 1 2 3 4 5 7 9 13 17 17 15 14 14 14 13 10 7 5 4 3 3 4 4 4 4 4 3 3 2 2 2 4 5 5 4 4 3 1 1 1 0 0 0 0 0
0 0 0 0 1 3 3 4 6 8 11 13 15 15 13 13 15 16 15 13 9 6 5 4 5 7 7 7 6 5 4 2 1 1 2 4 5 4 3 3 3 3 3 3 1 1 0 0 0
0 0 0 1 2 3 4 5 5 7 10 12 15 15 13 12 14 16 17 17 15 11 9 8 8 8 9 8 8 7 5 3 2 1 1 3 4 5 4 3 3 4 4 4 3 2 1 1 0
0 0 0 1 2 3 4 5 5 6 8 11 14 15 13 10 12 15 18 19 18 17 15 14 12 11 11 11 11 11 9 6 3 2 2 3 4 5 5 4 3 3 4 4 3 3 3 2 1
0 0 0 1 2 3 4 4 4 6 7 8 11 13 11 9 10 14 18 19 19 20 21 19 17 17 16 15 15 14 12 9 6 4 4 3 4 4 4 3 3 3 3 3 3 3 3 2 1
0 0 1 1 1 1 2 3 4 6 6 7 9 12 11 10 9 12 17 20 21 24 24 21 21 20 19 16 15 16 13 10 8 6 5 3 3 3 3 3 3 3 3 3 3 3 3 3 2
0 0 0 0 0 0 1 2 3 4 5 6 8 12 13 12 11 13 17 21 23 26 26 25 24 23 20 18 16 15 13 10 8 7 5 3 1 2 2 3 3 3 3 3 3 3 3 3 3
0 0 0 0 0 0 0 1 1 2 4 6 9 13 15 16 16 16 18 21 24 28 29 29 29 27 24 19 17 16 15 13 11 9 6 3 1 0 1 3 3 3 3 3 3 3 3 3 3
0 0 0 0 0 0 0 0 1 2 4 7 12 15 17 20 21 21 21 23 26 29 31 33 32 28 24 20 20 20 18 17 16 12 8 6 3 1 1 2 3 3 3 3 3 3 3 3 3
0 0 0 0 0 0 0 1 3 5 7 11 15 18 21 24 25 25 24 25 26 28 30 32 31 25 21 22 24 24 23 22 19 14 10 8 4 1 1 3 3 3 3 4 3 3 3 3 3
0 0 0 0 0 0 1 2 4 8 12 15 18 21 25 28 28 27 26 25 25 27 29 30 26 22 21 23 25 25 24 22 18 13 9 7 5 2 2 3 3 3 4 4 4 3 3 3 3
0 0 0 0 0 0 1 2 4 9 13 16 20 23 25 28 29 28 27 26 24 25 28 27 24 23 23 23 23 22 21 19 15 11 9 7 6 5 4 4 3 3 4 4 4 3 3 3 3
0 0 0 0 0 0 0 1 3 8 11 15 21 23 23 26 29 28 28 28 25 24 26 27 25 25 25 23 21 20 18 15 12 11 10 8 7 6 6 5 4 3 4 4 4 3 3 3 3

GEFSSGP_con_probscp_216.txt.gz
Probability
6 4 2 1 0 0 0 0 0 0 0 0 0 0 0 0 0 0 0 0 0 0 0 0 1 0 0 0 0 0 0 0 0 0 0 0 1 2 2 2 1 1 2 2 1 0 0 0 0
4 3 1 0 0 0 0 0 0 0 0 0 0 0 0 0 0 0 0 0 0 0 0 0 1 0 0 0 0 0 0 0 0 0 0 0 1 1 1 1 0 0 1 1 0 0 0 0 0
3 2 1 0 0 0 0 0 0 0 0 0 0 0 0 0 0 0 0 0 0 0 0 0 0 0 0 0 0 0 0 0 0 0 0 0 0 0 0 0 0 0 0 0 0 0 0 0 0
1 1 1 0 0 0 0 0 0 0 0 0 0 0 0 0 0 0 0 0 0 0 0 0 0 0 0 0 0 0 0 0 0 0 0 0 0 0 0 0 0 0 0 0 0 0 0 0 0
0 0 0 0 0 0 0 0 0 1 1 0 0 0 0 0 0 0 0 0 0 0 0 0 0 0 0 0 0 0 0 0 0 0 0 0 0 0 0 0 0 0 0 0 0 0 0 0 0
0 0 0 0 0 0 0 0 1 2 2 1 1 1 0 0 0 0 0 0 0 0 0 0 0 0 0 0 0 0 0 0 0 0 0 0 0 0 0 0 0 0 0 0 0 0 0 0 0
0 0 0 0 0 0 0 0 1 2 2 1 1 1 0 0 0 0 0 0 0 0 0 0 0 0 0 0 0 0 0 0 0 1 0 0 0 0 0 0 0 0 0 0 0 0 0 0 0
0 0 0 0 0 0 0 0 1 2 2 1 1 1 0 0 0 0 0 0 0 0 0 0 0 0 0 0 0 0 0 0 0 0 0 0 0 0 0 0 0 0 0 0 0 0 0 0 0
0 0 0 0 0 0 0 0 0 1 1 0 0 1 1 1 1 1 1 0 0 0 0 0 0 0 0 0 0 1 1 1 0 0 0 0 0 0 0 0 0 0 0 0 0 0 0 0 0
0 0 0 0 0 0 0 0 0 0 0 0 1 3 4 4 3 2 1 0 0 0 0 0 0 0 0 0 0 1 2 2 1 0 0 0 0 0 0 0 0 0 0 0 0 0 0 0 0
0 0 0 0 0 0 0 0 0 0 0 1 4 7 8 6 4 3 1 0 0 0 0 0 0 0 0 0 1 2 3 3 2 1 1 0 0 0 0 0 0 0 0 0 0 0 0 0 0
0 0 0 0 0 0 0 0 0 0 0 1 5 8 8 6 4 3 1 0 0 0 0 0 0 0 0 0 1 2 3 3 3 3 2 1 0 0 0 0 0 0 0 0 0 0 0 0 0
0 0 0 0 0 0 0 0 0 0 1 2 5 7 7 5 4 3 2 1 1 1 1 0 0 1 1 0 1 2 3 3 3 3 3 1 1 1 0 0 0 0 0 0 0 0 0 0 0
0 0 0 0 0 0 0 0 0 1 2 3 4 5 5 4 3 2 1 1 2 3 2 1 0 1 2 1 1 3 3 3 3 3 3 3 2 2 1 0 0 0 0 0 0 0 0 0 0
0 0 0 0 0 0 0 0 0 1 2 3 3 4 3 2 1 1 0 2 5 5 3 1 0 1 2 2 2 2 3 3 3 3 3 3 3 2 2 2 1 1 0 0 0 0 0 0 0
0 0 0 0 1 1 0 0 0 1 2 2 2 3 2 1 0 0 1 3 5 4 2 0 0 0 1 1 2 1 1 2 3 3 3 3 3 2 2 3 3 2 1 0 0 0 0 0 0
0 0 0 1 2 2 1 1 2 1 1 1 1 2 1 0 0 1 2 3 4 3 1 0 0 0 0 1 1 1 0 1 1 2 3 3 3 3 3 3 3 3 2 1 0 0 0 0 0
0 0 0 1 2 3 3 3 3 2 1 0 1 2 1 0 1 2 2 2 2 2 1 0 1 1 1 1 1 0 0 0 0 1 2 3 3 3 3 3 3 3 3 1 1 1 0 0 0
0 0 0 1 3 3 3 3 3 2 2 2 2 3 2 1 2 2 1 1 2 1 0 1 2 3 3 2 1 0 0 0 0 1 2 2 2 3 3 3 3 3 3 2 2 2 1 0 0
0 0 0 2 3 3 3 3 3 2 3 4 4 3 3 2 2 2 1 1 2 1 1 2 5 6 5 4 2 0 0 0 0 1 2 1 1 1 3 3 3 3 3 2 3 3 2 1 1
0 0 0 1 3 3 3 2 2 3 3 3 3 3 2 2 3 2 1 1 2 2 1 3 5 6 5 4 2 1 0 0 0 1 1 1 1 1 2 3 3 3 3 3 3 3 3 3 2
0 0 0 1 2 2 1 1 1 3 3 3 3 3 2 2 2 2 1 1 2 3 2 2 3 4 4 4 3 1 0 0 0 0 1 1 1 0 1 1 3 3 3 3 3 3 3 3 3
0 0 0 0 1 1 1 0 1 2 2 2 3 3 3 2 2 2 2 2 4 6 5 3 3 4 3 3 3 2 1 0 0 0 1 1 0 0 0 1 2 3 3 3 3 3 3 3 3
1 0 0 0 0 0 0 0 0 1 1 2 3 3 3 2 1 2 3 4 6 8 8 4 4 5 4 4 4 3 3 1 0 1 1 0 0 0 0 0 1 1 3 3 3 3 3 3 3
1 0 0 0 0 0 0 0 0 0 1 2 3 3 3 2 1 2 3 4 5 8 8 6 4 5 5 4 4 5 4 3 2 2 1 0 0 0 0 0 0 1 3 3 3 3 3 3 3
1 0 0 0 0 0 0 0 1 2 2 3 3 3 3 2 1 3 4 3 4 6 8 7 6 5 4 3 3 4 4 3 3 3 2 1 0 0 0 1 1 2 3 3 3 3 3 3 3
0 0 0 0 0 0 0 0 2 3 3 3 4 3 3 3 2 3 4 5 4 6 8 9 8 7 5 4 4 5 5 4 4 4 4 3 1 1 1 2 3 3 3 3 3 3 3 3 3
0 0 0 0 0 0 0 0 1 3 3 4 5 4 3 3 2 2 4 5 4 5 8 8 8 9 8 7 7 8 7 7 7 7 7 6 4 3 3 4 3 3 3 3 3 3 3 3 3
0 0 0 0 0 0 0 0 1 2 3 4 5 3 2 2 2 2 3 4 4 5 6 7 7 8 8 9 9 9 8 8 9 9 9 7 6 6 5 4 3 3 3 3 3 2 2 2 2
0 0 0 0 0 0 0 0 1 2 2 4 4 3 2 2 3 3 3 2 4 5 5 5 7 7 8 9 10 9 8 9 10 10 9 7 7 6 6 4 2 3 3 3 2 1 1 1 1

GEFSSGP_con_probscp_222.txt.gz
Probability
13 15 15 9 3 0 0 0 0 0 0 0 0 0 0 0 0 0 0 0 0 0 0 0 1 3 3 2 1 0 0 0 0 0 0 0 0 0 0 1 2 2 1 0 1 1 1 1 0
9 12 11 6 2 0 0 0 0 0 0 0 0 0 0 0 0 0 0 0 0 0 0 0 2 3 3 2 1 0 0 0 0 0 1 1 0 0 1 2 1 1 0 0 1 1 1 0 0
6 7 5 2 0 0 0 0 0 0 0 0 0 0 0 0 0 0 0 0 0 0 0 0 1 2 1 1 1 1 1 0 0 0 1 1 0 0 1 2 1 0 0 0 1 1 0 0 0
4 3 1 0 0 0 0 0 0 0 0 0 0 0 0 0 0 0 0 0 0 0 0 0 1 1 0 0 1 1 1 0 0 0 1 1 0 0 1 1 0 0 0 0 0 0 0 0 0
2 1 0 0 0 0 0 0 0 0 0 0 0 0 0 0 0 0 0 0 0 0 0 0 0 0 0 0 0 0 0 0 0 0 0 0 0 0 0 0 0 0 0 0 0 0 0 0 0
1 0 0 0 0 0 0 0 0 0 0 0 0 0 0 0 0 0 0 0 0 0 0 0 0 0 0 0 0 0 0 0 0 0 0 0 0 0 0 0 1 0 0 0 0 0 0 0 0
0 0 0 0 0 0 0 0 0 0 0 0 0 0 0 0 0 0 0 0 0 0 0 0 0 0 0 0 0 0 0 0 0 0 1 0 0 0 0 0 0 0 0 0 0 0 0 0 0
0 0 0 0 0 0 0 0 0 0 0 0 0 0 1 1 0 0 0 0 0 0 0 0 0 0 0 0 0 0 0 0 0 0 0 0 0 0 0 0 0 0 0 0 0 0 0 0 0
0 0 0 0 0 0 0 0 0 0 0 0 0 1 2 2 1 0 0 0 0 0 0 0 0 0 1 1 1 1 1 0 0 0 0 0 0 0 0 0 0 0 0 0 0 0 0 0 0
0 0 0 0 0 0 0 0 0 0 0 0 1 3 5 4 1 0 0 0 0 0 0 0 0 1 2 2 2 2 2 1 1 1 1 1 1 1 0 0 0 0 0 0 0 0 0 0 0
0 0 0 0 0 0 0 0 0 0 0 0 2 5 7 5 2 1 1 1 0 0 0 0 1 2 3 3 2 2 3 3 2 2 2 2 2 2 1 0 0 0 0 0 0 0 0 0 0
0 0 0 0 0 0 0 0 0 0 0 0 3 7 9 6 3 2 2 1 1 1 1 1 1 2 2 1 2 2 3 3 3 3 3 3 3 2 1 0 0 0 0 0 0 0 0 0 0
0 0 0 0 0 0 0 0 0 0 0 2 5 8 8 5 3 3 3 1 1 2 2 2 1 1 1 1 3 4 3 3 3 3 3 3 3 1 0 0 0 0 0 0 0 0 0 0 0
0 0 0 0 0 0 0 0 0 0 1 3 5 6 5 2 1 2 2 1 1 2 3 3 3 2 2 3 4 4 4 3 3 3 3 3 3 1 1 0 0 0 0 0 0 0 0 0 0
0 0 0 0 0 0 0 0 0 0 1 2 3 3 2 1 0 1 2 2 2 3 3 3 3 3 3 4 4 3 3 3 3 3 3 4 4 4 3 1 1 0 1 1 1 0 0 1 1
0 0 0 0 0 0 0 0 0 0 0 1 1 1 1 1 0 0 1 3 3 4 4 4 3 2 2 3 3 2 2 3 3 4 4 5 7 7 5 3 2 2 2 2 1 0 0 0 0
0 0 0 0 0 0 0 0 0 0 0 0 0 0 0 0 0 1 1 3 4 5 6 6 4 3 2 3 4 3 3 3 3 5 5 6 7 6 4 3 3 3 2 1 1 0 0 0 0
0 0 0 0 0 0 0 0 0 0 0 0 0 0 0 0 1 2 2 2 3 5 8 9 7 6 5 5 5 4 3 2 2 5 6 6 6 5 4 3 4 3 2 1 0 1 1 1 1
0 0 0 0 0 0 0 0 0 0 0 0 0 1 1 0 1 2 2 1 2 5 9 11 9 8 6 6 6 5 3 1 1 3 5 6 6 6 4 3 2 1 1 1 1 2 2 2 2
0 0 0 1 0 0 0 1 1 1 1 1 1 1 2 2 1 1 1 1 2 5 8 10 9 7 6 6 6 6 5 3 1 1 2 4 5 5 3 2 1 0 1 2 3 3 3 3 3
0 0 0 0 0 0 0 1 1 2 2 2 1 2 3 4 3 1 0 1 3 5 6 8 9 9 9 8 6 6 7 5 2 1 1 3 3 2 2 1 1 1 2 3 3 3 3 3 3
0 0 0 0 0 0 0 0 1 2 3 3 3 3 4 6 6 3 1 1 3 5 6 8 11 14 15 12 9 8 8 5 2 2 3 4 3 2 1 1 2 3 3 3 3 3 3 3 3
1 0 0 0 0 0 0 0 1 1 2 2 4 4 5 7 7 5 2 2 3 5 8 10 14 18 18 15 14 13 9 5 3 3 4 4 3 2 1 1 3 3 3 3 3 3 3 3 3
2 2 2 2 1 0 0 0 0 0 0 2 4 6 6 7 7 6 4 4 5 7 10 13 17 20 19 16 16 15 10 6 5 4 4 3 2 1 1 2 3 3 3 3 3 3 3 3 3
3 4 5 4 2 1 0 0 0 0 0 1 4 6 6 7 7 6 5 5 7 10 13 17 21 22 19 16 14 12 10 7 6 6 5 3 2 1 1 2 3 4 3 3 4 5 5 5 5
1 2 4 4 2 1 0 0 0 0 0 1 4 6 7 8 8 7 6 6 8 11 14 17 20 21 19 15 12 12 11 10 10 9 7 5 3 2 1 2 3 3 3 4 6 7 8 8 8
0 1 2 2 1 0 0 0 0 0 1 2 4 6 7 9 11 11 9 7 9 12 14 15 16 18 17 14 13 14 15 15 14 11 9 6 5 5 5 5 5 5 5 5 7 8 9 9 9
0 1 1 2 1 1 0 0 0 1 2 3 4 6 8 10 12 13 11 10 11 12 13 13 15 15 14 12 12 13 15 16 14 11 9 8 8 9 9 8 8 7 7 7 7 7 7 7 8
0 1 3 3 3 1 0 0 0 1 3 4 6 8 9 10 10 10 11 11 11 10 10 12 14 14 12 10 10 11 13 14 12 10 10 11 11 11 9 8 8 8 8 8 7 5 5 5 6
1 2 3 5 4 1 0 0 0 1 3 5 7 10 10 9 9 8 9 10 9 7 7 10 13 12 11 9 9 11 13 14 12 10 11 12 12 11 8 7 7 7 7 7 5 4 3 4 4

GEFSSGP_con_probscp_228.txt.gz
Probability
8 14 23 27 20 7 1 0 0 0 0 0 0 0 0 0 0 0 0 0 0 0 0 0 0 1 1 2 3 3 3 3 3 3 4 4 3 2 1 1 1 2 3 3 1 0 0 0 0
10 16 23 21 11 3 0 0 0 0 0 0 0 0 0 0 0 0 0 0 0 0 0 0 1 1 2 3 3 3 3 3 2 2 2 3 2 2 1 0 1 1 2 2 1 0 0 0 0
16 21 22 13 4 0 0 0 0 0 0 0 0 0 0 0 0 0 0 0 0 0 0 1 1 1 2 2 2 2 2 1 1 0 1 1 1 1 0 0 1 1 1 1 1 1 0 0 0
20 21 16 6 1 0 0 0 0 0 0 0 0 0 0 0 0 0 0 0 0 0 0 1 1 1 1 1 1 1 1 0 0 0 0 0 0 0 0 0 1 1 0 0 0 1 1 0 0
18 15 7 2 0 0 0 0 0 0 0 0 0 0 0 0 0 0 0 0 0 0 0 1 1 1 0 0 0 0 0 0 0 0 1 1 1 1 0 0 0 0 0 0 0 1 1 2 1
13 7 2 0 0 0 0 0 0 0 0 0 0 0 0 0 0 0 0 0 0 0 0 0 0 0 0 0 0 0 0 0 0 0 1 2 2 1 0 0 0 0 0 0 0 0 1 2 2
7 3 0 0 0 0 0 0 0 0 0 0 0 1 1 0 0 0 0 0 0 0 0 0 0 0 0 1 1 0 0 0 0 0 1 1 1 1 0 0 0 0 0 0 0 0 1 1 1
2 1 0 0 0 0 0 0 0 0 0 0 0 1 2 1 0 0 0 0 0 0 0 0 0 0 0 1 1 0 0 0 0 0 0 0 0 0 0 0 0 0 0 0 0 0 0 0 0
0 0 0 0 0 0 0 0 0 0 0 0 1 2 2 1 0 0 0 0 0 0 1 0 0 1 0 0 0 0 0 0 0 0 0 1 0 0 0 1 0 0 0 0 0 0 0 0 0
0 0 0 0 0 0 0 0 0 0 0 1 3 3 1 0 0 1 1 1 0 0 0 0 0 0 0 0 0 0 0 1 1 1 1 1 0 0 1 1 1 1 0 0 0 0 0 0 0
0 0 0 0 0 0 0 0 0 0 1 2 4 4 2 1 0 1 1 1 0 0 0 0 0 0 0 0 1 1 2 3 5 5 5 3 2 1 2 3 3 2 0 0 0 0 0 0 0
0 0 0 0 0 0 0 0 0 0 1 3 4 4 3 2 1 0 0 0 0 0 0 0 1 1 0 1 2 3 4 5 7 9 8 6 4 2 2 3 3 2 2 1 1 1 1 1 0
0 0 0 0 0 0 0 0 0 1 2 4 4 4 3 2 1 0 0 0 0 0 0 2 5 5 3 3 5 7 7 7 8 10 11 9 5 2 2 3 3 3 4 4 4 3 2 1 0
0 0 0 0 0 0 0 0 0 2 4 5 5 4 4 3 2 1 1 0 0 1 2 4 8 9 6 6 8 10 9 8 8 10 12 11 8 5 5 5 4 4 5 5 5 4 3 1 1
0 0 0 0 0 0 0 0 1 4 6 6 4 5 6 5 4 4 3 1 1 3 4 5 7 10 9 8 8 9 10 10 11 12 13 12 11 9 8 7 5 5 5 5 4 3 3 2 2
0 0 0 0 0 0 0 0 1 5 7 6 6 7 7 5 6 6 4 2 3 5 7 5 5 8 11 10 9 9 11 12 12 12 13 12 11 10 8 7 6 5 4 4 3 3 3 3 2
0 0 0 0 0 0 0 0 2 5 7 8 8 9 7 7 9 8 4 3 6 10 12 10 6 7 11 12 11 10 12 13 13 13 14 13 10 8 8 7 6 4 3 3 3 3 3 2 1
0 0 0 0 0 0 1 1 4 7 8 9 10 10 10 11 12 10 6 4 9 15 19 17 12 10 11 12 12 11 12 12 12 13 13 11 9 8 7 6 5 4 3 3 2 3 3 2 2
0 0 0 0 0 0 1 3 5 7 7 9 11 12 12 14 17 15 10 8 13 22 26 24 19 17 16 13 11 10 9 10 11 11 10 9 9 9 8 6 5 4 3 3 2 3 3 2 3
0 0 0 0 0 0 1 3 3 3 5 8 11 12 13 15 20 20 15 11 17 26 30 27 24 23 22 18 12 9 8 8 10 11 11 10 9 8 7 7 6 4 4 3 3 3 3 2 3
0 0 0 0 0 0 1 2 1 1 2 6 9 11 12 14 19 22 20 16 18 25 29 28 27 27 25 21 16 12 10 10 12 14 15 14 11 8 7 7 6 4 4 4 4 4 4 3 3
0 0 0 0 0 0 0 1 2 1 1 2 6 9 10 12 17 22 24 21 20 22 27 30 30 29 26 23 22 20 17 15 14 16 18 17 14 12 10 9 7 6 5 5 5 5 6 6 5
0 0 0 0 0 0 0 1 3 2 1 1 3 6 9 12 16 21 25 24 19 19 26 33 35 34 30 27 26 26 23 18 16 17 19 19 19 17 15 12 10 8 8 7 7 8 8 9 8
0 0 1 1 0 0 0 1 2 1 1 1 2 4 8 13 16 20 23 24 19 19 27 36 40 39 36 32 29 27 25 21 18 18 19 20 21 21 19 15 12 11 10 10 10 10 11 11 11
0 0 1 1 0 0 0 1 2 1 0 1 2 4 8 14 18 20 24 24 21 22 29 37 42 44 41 36 31 27 24 22 20 19 19 19 19 19 18 16 13 12 12 12 12 12 12 12 12
0 0 1 1 0 0 1 2 2 1 1 2 3 5 10 15 20 24 26 25 23 23 29 38 45 46 43 38 33 27 23 21 20 19 18 17 16 15 15 16 15 14 14 13 13 12 12 11 11
0 1 2 2 1 0 1 2 1 0 1 3 3 5 10 16 21 26 28 27 24 23 29 38 45 45 41 38 34 29 25 21 20 19 18 16 14 13 13 15 15 14 13 13 12 11 10 10 10
0 1 3 3 2 1 1 1 1 0 2 3 5 7 12 16 20 26 31 31 26 25 30 37 41 41 38 35 31 29 26 22 20 19 18 16 15 13 13 13 12 12 11 11 10 9 8 8 7
0 1 3 3 2 1 0 0 0 0 1 4 8 12 16 17 18 25 31 32 30 28 32 37 38 36 34 32 29 28 27 25 22 20 19 19 18 16 14 12 11 10 9 8 7 6 5 4 4
0 1 2 3 3 2 1 0 0 0 1 5 10 16 18 17 17 22 28 32 32 30 33 37 37 34 32 30 29 29 29 28 26 23 21 23 24 20 15 13 11 10 8 7 5 4 4 4 3

GEFSSGP_con_probscp_234.txt.gz
Probability
22 14 4 0 0 0 0 0 0 0 0 0 0 0 0 0 0 0 0 0 0 0 0 0 0 0 0 1 1 2 2 3 3 1 0 0 0 0 0 0 0 0 0 0 1 1 2 1 0
12 8 3 0 0 0 0 0 0 0 0 0 0 0 0 0 0 0 0 0 0 0 0 0 0 1 1 2 2 2 2 2 2 1 1 0 0 0 0 0 0 0 0 1 1 1 1 1 0
4 3 2 0 0 0 0 0 0 0 0 0 0 0 0 0 0 0 0 0 0 0 0 0 0 1 2 2 2 1 1 0 1 2 2 1 1 2 1 1 1 1 0 1 1 1 0 0 0
2 2 1 0 0 0 0 0 1 0 0 0 0 0 0 0 0 0 0 0 0 1 1 1 0 1 1 1 1 0 0 0 1 2 3 3 3 4 3 2 2 1 0 1 1 0 0 0 0
2 2 1 0 0 0 0 0 0 0 0 0 0 0 0 0 1 1 1 1 1 2 2 2 1 1 1 1 0 1 1 0 0 1 3 3 5 6 6 4 2 1 0 0 0 0 0 0 0
2 1 0 0 0 0 0 0 1 1 0 0 0 0 0 1 3 3 2 2 2 3 3 3 3 3 2 2 2 2 2 1 0 1 2 2 3 5 6 4 2 1 1 0 0 0 0 0 0
3 2 0 0 0 0 0 0 1 1 0 0 0 0 0 1 4 4 3 3 3 2 2 3 3 3 3 2 2 2 2 2 1 0 1 1 1 3 4 3 2 2 1 0 0 0 0 0 0
2 1 0 0 0 0 0 0 1 1 0 0 0 0 0 1 2 3 3 3 3 2 1 1 1 2 2 1 1 1 1 2 1 0 1 1 0 1 1 2 3 2 1 0 0 0 0 0 0
1 0 0 0 0 0 0 0 0 0 0 0 0 0 0 1 2 3 3 3 3 2 0 0 0 1 1 0 0 0 0 1 1 1 1 1 0 0 0 1 2 1 0 0 0 0 0 0 0
0 0 0 0 0 0 0 0 0 0 1 1 1 0 0 1 2 2 3 3 2 1 0 0 0 0 0 0 0 0 0 0 0 0 1 1 0 0 0 1 1 0 0 0 0 0 0 0 0
0 0 0 0 0 0 0 0 0 0 1 1 1 0 0 1 1 1 2 2 1 1 1 0 1 1 0 0 0 0 0 0 0 0 0 0 0 0 0 0 0 0 0 0 0 0 0 0 0
0 0 0 0 0 0 0 1 1 1 0 0 0 0 0 0 0 0 1 1 1 2 2 2 1 1 1 1 1 1 0 0 0 1 0 0 0 0 0 0 0 0 0 0 0 0 0 0 0
0 0 0 0 0 0 1 2 2 2 1 0 0 0 0 0 0 0 0 0 1 3 4 3 2 2 2 2 3 2 1 1 0 0 0 0 0 0 0 0 0 0 0 0 0 0 0 0 0
0 0 0 0 0 1 2 3 3 3 1 0 0 0 0 0 0 1 1 1 2 4 5 3 2 3 3 4 4 5 4 2 1 0 0 0 0 0 0 0 0 0 0 0 0 0 0 0 0
0 0 0 0 0 1 3 3 3 3 2 1 1 1 1 1 0 1 2 1 2 5 5 4 3 3 4 5 6 6 5 3 1 0 0 0 0 0 0 0 1 1 1 1 0 0 0 0 0
0 0 0 0 0 0 1 2 3 3 2 2 3 4 3 2 1 1 2 2 2 3 5 4 4 5 6 6 6 6 6 4 3 1 0 0 1 1 1 1 2 2 2 1 0 0 0 0 0
0 0 0 0 0 0 0 1 3 4 3 3 5 6 6 5 4 3 4 4 1 2 4 5 5 6 7 7 6 6 6 6 5 2 0 1 2 4 3 3 2 2 1 1 0 0 0 0 0
0 0 0 0 0 0 0 1 3 5 4 4 6 8 8 8 8 8 8 6 2 2 4 4 4 5 6 6 6 5 5 6 6 4 2 2 4 5 5 3 1 1 0 0 0 0 0 0 0
0 0 0 0 0 0 0 1 3 5 5 5 7 8 8 8 11 12 12 9 4 3 4 4 3 4 5 6 6 5 5 6 6 6 5 4 4 4 3 2 1 0 0 0 0 0 0 0 0
0 0 0 0 0 0 0 0 2 3 4 6 7 8 7 9 12 15 15 11 7 6 6 6 5 5 5 6 5 4 4 4 5 5 5 4 3 1 1 1 0 0 0 0 0 0 0 0 0
0 0 0 0 0 0 0 0 1 2 4 5 7 7 7 10 13 14 14 14 11 9 9 9 9 9 7 5 4 4 3 3 4 5 5 3 2 1 1 1 1 1 1 1 1 1 1 0 0
0 0 0 0 0 0 1 1 1 1 3 5 6 6 7 10 11 11 12 15 14 12 12 12 12 11 8 5 5 5 5 5 5 5 5 4 3 3 3 3 3 3 3 2 2 2 2 1 0
1 0 0 0 0 0 1 1 1 0 2 4 6 6 7 9 10 9 10 12 13 14 15 16 16 14 10 7 7 8 8 7 6 5 4 4 5 5 5 5 5 5 4 4 3 3 3 2 1
1 0 0 1 0 0 0 0 0 0 1 3 4 6 8 11 12 11 10 11 11 15 19 20 19 17 13 11 11 12 12 11 8 6 5 6 5 4 4 5 6 7 7 6 5 5 4 4 4
1 0 0 0 0 0 0 0 0 1 2 3 4 6 10 14 14 13 13 13 13 18 23 23 21 19 17 16 15 14 14 13 9 7 6 6 5 4 4 6 8 9 9 9 8 7 6 5 5
0 0 0 0 0 0 0 0 0 1 3 5 6 8 11 15 16 15 14 14 17 22 25 25 24 22 20 18 15 14 14 13 9 6 5 5 5 5 6 8 9 9 9 9 8 7 6 5 4
0 0 0 0 0 0 0 0 0 2 5 7 9 11 13 14 15 15 12 13 18 25 26 24 24 24 21 17 13 12 13 12 9 6 4 3 4 5 7 8 8 7 7 6 5 5 4 3 3
0 0 0 0 0 0 0 0 0 2 5 8 11 13 15 16 16 14 11 11 17 25 26 23 22 22 20 15 12 11 12 11 8 5 4 4 4 4 6 7 6 5 4 4 3 3 3 3 2
0 0 0 0 0 0 0 0 0 1 3 8 12 16 17 18 19 16 12 10 15 23 26 23 21 20 18 14 12 12 11 8 6 4 4 4 4 4 4 5 4 3 3 3 3 3 2 1 1
0 0 0 0 0 0 0 0 0 1 2 7 14 18 16 17 21 20 13 10 14 22 25 24 21 20 18 15 13 12 10 7 5 4 4 4 4 5 5 4 4 3 3 3 3 2 1 0 0

GEFSSGP_con_probscp_240.txt.gz
Probability
8 4 1 0 0 0 0 0 0 0 0 0 0 0 0 0 0 0 0 0 0 0 0 0 0 0 0 0 0 1 2 2 2 2 1 0 0 0 1 4 3 1 1 2 1 1 0 1 2
4 2 0 0 0 0 0 0 0 0 0 0 0 0 0 0 0 0 0 0 0 0 0 0 0 0 0 0 0 0 1 2 3 2 1 0 0 0 1 3 3 2 3 2 1 1 1 1 2
1 0 0 0 0 0 0 0 0 0 0 0 0 0 0 0 0 0 0 0 0 0 0 0 0 0 0 0 0 0 1 2 3 2 1 0 0 1 2 2 2 3 4 2 1 0 1 1 1
0 0 0 0 0 0 0 0 0 0 0 0 0 0 0 0 0 0 0 0 0 0 0 0 0 0 0 0 1 1 2 2 2 2 1 0 1 3 3 2 2 3 3 2 1 0 1 2 1
0 0 0 0 0 0 0 0 0 0 0 0 0 0 0 0 0 0 0 0 0 0 0 0 0 0 0 0 1 2 2 2 2 2 1 1 3 4 3 2 3 3 3 2 1 0 1 1 1
0 0 0 0 0 0 0 0 0 0 0 0 0 0 0 0 0 0 0 0 0 0 0 0 0 0 1 1 0 1 3 4 6 6 4 4 5 4 4 3 3 3 3 2 1 0 0 0 0
0 0 0 0 0 0 0 0 0 0 0 0 0 0 0 0 0 0 0 0 0 0 0 0 0 0 1 2 1 2 5 7 9 9 6 5 5 4 5 5 4 3 3 2 1 0 0 0 0
0 0 0 0 0 0 0 0 0 0 0 0 0 0 0 0 0 0 0 0 0 0 0 0 0 0 1 2 2 3 5 7 8 8 5 3 3 3 4 4 3 3 3 2 1 0 0 0 0
0 0 0 0 0 0 0 0 0 0 0 0 0 0 0 0 0 0 0 0 0 0 0 0 0 0 0 1 2 3 4 5 5 4 2 1 1 1 2 2 2 2 1 1 1 0 0 0 0
0 0 0 0 0 0 0 0 0 0 0 0 0 0 0 0 0 0 0 0 0 0 0 0 0 0 0 0 1 1 1 2 2 1 1 0 0 0 0 0 1 1 0 0 0 0 0 0 0
0 0 0 0 0 0 0 0 0 0 0 0 0 0 0 0 0 0 0 0 0 0 0 0 0 0 0 0 0 0 0 0 0 0 0 0 0 0 0 0 0 0 0 0 0 0 0 0 0
0 0 0 0 0 0 0 0 0 0 0 0 0 0 0 0 0 0 0 0 0 0 0 0 0 0 0 0 0 0 0 0 0 0 0 0 0 0 0 0 0 0 0 0 0 0 0 0 0
0 0 0 0 0 0 0 0 0 0 0 0 0 0 0 0 0 0 0 0 0 0 0 0 0 0 0 0 0 0 0 0 0 0 0 0 0 0 0 0 0 0 0 0 0 0 0 0 0
0 0 0 0 0 0 0 0 0 0 0 0 0 0 0 0 0 0 0 0 0 0 0 0 0 0 0 0 0 0 0 0 0 0 0 0 0 0 0 0 0 0 0 0 0 0 0 0 0
0 0 0 0 0 0 0 0 0 0 0 0 0 0 0 0 0 0 0 0 0 0 0 0 0 0 0 0 0 0 0 0 0 0 0 0 0 0 0 0 0 0 0 0 0 0 0 0 0
0 0 0 0 0 0 0 0 0 0 0 0 0 0 0 0 0 0 0 0 0 0 0 0 0 1 1 1 0 0 0 0 0 0 0 0 0 0 0 0 0 0 0 0 0 0 0 0 0
0 0 0 0 0 0 0 0 0 0 0 0 0 0 0 0 0 0 0 0 0 0 0 0 0 1 2 1 0 0 0 0 0 0 0 0 0 0 0 0 0 0 0 0 0 0 0 0 0
0 0 0 0 0 0 0 0 0 0 0 1 1 1 1 0 0 0 0 0 0 0 0 0 0 1 1 1 0 0 0 0 0 0 0 0 0 0 0 0 0 0 0 0 0 0 0 0 0
0 0 0 0 0 0 0 1 0 0 1 2 2 2 2 1 1 1 2 2 1 0 0 0 0 0 0 0 0 0 0 0 0 0 0 0 0 0 0 1 1 0 0 0 0 0 0 0 0
0 0 0 0 0 0 0 0 0 0 1 2 2 2 3 2 2 4 5 4 2 0 0 0 0 0 0 0 0 0 0 0 0 0 0 0 0 0 0 1 2 1 0 0 0 0 0 0 0
0 0 0 0 0 0 0 0 0 0 1 1 0 2 3 3 4 6 7 4 1 0 0 0 0 0 0 0 0 1 1 1 0 0 0 0 0 0 0 1 1 1 0 0 0 1 1 0 0
0 0 0 0 0 0 0 0 0 0 0 0 0 1 2 3 5 7 7 4 1 0 0 0 0 0 0 0 1 2 2 1 0 0 0 0 0 0 0 0 0 0 0 1 1 2 2 1 0
0 0 0 0 0 0 0 0 0 0 0 0 0 0 1 3 6 8 7 4 1 0 1 2 2 2 2 1 1 3 3 2 0 0 0 0 0 0 0 0 0 0 1 2 3 3 3 2 1
0 0 0 0 0 0 0 0 0 0 0 0 0 0 0 3 7 9 7 4 1 2 3 5 5 4 4 3 2 3 3 2 1 1 1 1 0 0 0 0 1 1 3 4 4 3 3 3 2
0 0 0 0 0 0 0 0 0 0 0 0 0 0 1 3 6 8 7 4 3 5 8 8 7 6 6 5 4 4 4 3 3 2 2 2 1 1 1 1 2 3 4 5 4 4 3 2 3
0 0 0 0 0 0 0 0 0 0 1 1 1 1 1 2 5 7 5 4 4 7 10 11 9 7 7 7 5 5 6 4 3 3 3 3 3 2 2 2 3 4 4 4 4 3 3 3 3
0 0 0 0 0 0 0 0 0 0 1 2 2 2 1 1 3 4 3 3 5 7 9 10 10 10 9 8 5 5 6 4 3 3 3 3 3 3 2 2 1 2 3 3 3 3 3 2 2
0 0 0 0 0 0 0 0 0 0 0 1 2 3 3 3 3 3 1 1 4 6 7 8 9 9 8 7 6 5 5 4 3 3 3 3 2 1 1 1 0 1 3 3 3 2 1 1 1
0 0 0 0 0 0 0 0 0 0 0 0 2 4 5 6 5 4 1 1 2 4 6 7 7 7 6 6 6 6 5 4 3 3 3 2 1 0 1 1 1 2 3 3 2 1 0 0 0
0 0 0 0 0 0 0 0 0 0 0 1 2 5 7 7 7 5 2 1 1 4 6 6 5 5 5 6 7 7 5 4 3 3 2 1 0 1 2 2 2 3 3 3 1 0 0 0 0

GEFSSGP_con_probscp_246.txt.gz
Probability
14 12 9 5 1 0 0 0 0 0 0 0 0 0 0 0 0 0 0 0 0 0 0 0 0 0 0 0 0 0 0 0 0 1 2 4 5 4 5 5 3 1 1 2 2 2 1 0 0
12 10 8 5 1 0 0 0 0 0 0 0 0 0 0 0 0 0 0 0 0 0 0 0 0 0 0 0 0 0 0 0 1 3 5 6 6 5 6 5 3 1 1 2 3 2 1 0 0
9 8 6 3 0 0 0 0 0 0 0 0 0 0 0 0 0 0 0 0 0 0 0 0 0 0 0 0 0 1 1 1 2 4 6 6 6 7 6 5 4 2 2 2 3 2 1 0 0
7 6 3 1 0 0 0 0 0 0 0 0 0 0 0 0 0 0 0 0 0 0 0 0 0 0 0 0 0 1 1 1 3 4 4 4 5 7 6 4 4 3 2 2 2 1 0 0 0
4 3 1 0 0 0 0 0 0 0 0 0 0 0 0 0 0 0 0 0 0 0 0 0 1 0 0 0 0 0 1 1 3 4 4 4 5 6 6 5 4 4 3 1 0 0 0 0 0
2 1 0 0 0 0 0 0 0 0 0 0 0 0 0 0 0 0 0 0 0 0 0 0 0 0 0 0 0 0 1 2 4 5 5 5 6 6 6 5 4 4 3 1 0 0 0 0 0
1 0 0 0 0 0 0 0 0 0 0 0 0 0 0 0 0 0 0 0 0 0 0 0 0 0 1 1 1 1 2 3 3 5 7 7 6 6 5 4 3 3 3 1 0 0 0 1 1
0 0 0 0 0 0 0 0 0 0 0 0 0 0 0 0 0 0 0 0 0 0 0 0 0 0 1 2 2 3 3 3 3 4 6 6 5 4 3 3 3 3 3 2 0 0 0 1 2
0 0 0 0 0 0 0 0 0 0 0 0 0 0 0 0 0 0 0 0 0 0 0 0 1 0 0 1 3 3 3 3 2 3 4 4 2 1 1 1 2 3 3 1 0 0 0 1 1
0 0 0 0 0 0 0 0 0 0 0 0 0 0 0 0 0 0 0 0 0 0 0 0 0 0 0 1 2 2 1 1 1 1 2 2 2 1 0 0 2 3 2 1 0 0 0 0 0
0 0 0 0 0 0 0 0 0 0 0 0 0 0 0 0 0 0 0 0 0 0 0 0 0 0 0 0 1 1 0 0 0 0 0 2 2 2 0 0 1 2 1 0 0 0 0 0 0
0 0 0 0 0 0 0 0 0 0 0 0 0 0 0 0 0 0 0 0 0 0 0 0 0 0 0 0 0 0 0 0 0 0 1 1 2 1 0 0 1 1 0 0 0 0 0 0 0
0 0 0 0 0 0 0 0 0 0 0 0 0 0 0 0 0 0 0 0 0 0 0 0 0 0 0 0 0 0 0 0 0 1 1 1 1 0 0 0 0 0 0 0 0 0 0 0 0
0 0 1 1 1 0 0 0 0 0 0 0 0 0 0 0 0 0 0 0 0 0 0 0 0 0 0 0 0 0 1 0 0 0 0 0 0 0 0 0 0 0 0 0 0 0 0 0 0
0 0 1 2 2 1 0 0 0 0 0 0 0 0 0 0 0 0 0 0 0 0 0 0 0 0 0 0 0 0 0 0 0 0 0 0 0 0 0 0 0 0 0 0 0 0 0 0 0
0 0 0 1 2 2 1 0 0 0 0 0 0 0 0 0 0 0 0 0 0 0 0 0 0 0 0 0 0 0 0 0 0 0 0 0 0 0 0 0 0 0 0 0 0 0 0 0 1
0 0 0 0 1 2 1 0 0 0 0 0 0 0 0 0 0 0 0 0 0 0 0 0 0 0 0 0 0 0 0 0 0 0 0 0 1 1 0 0 0 0 0 0 0 1 1 1 2
0 0 0 0 0 1 1 0 1 1 0 0 0 0 0 0 0 0 0 0 0 0 1 2 1 1 1 2 1 1 0 0 0 0 0 1 2 1 0 0 0 0 0 1 1 2 2 3 3
0 0 0 0 0 0 0 1 2 2 1 1 0 1 1 0 0 0 0 0 0 1 3 4 5 5 6 5 3 2 2 1 0 0 1 1 2 2 1 0 0 0 1 2 3 3 3 3 3
0 0 0 0 0 0 0 1 3 3 3 2 1 1 2 1 1 1 1 2 2 3 4 6 8 11 11 9 6 5 4 2 1 1 3 3 4 3 2 1 1 2 3 4 4 4 4 3 3
0 0 0 0 0 0 0 2 4 4 3 2 1 1 2 2 2 3 4 5 5 5 5 7 11 15 15 13 11 9 7 5 4 4 5 6 5 4 3 3 4 5 5 6 6 6 5 4 4
0 0 0 0 0 0 0 1 2 3 2 1 0 0 1 3 3 3 5 6 6 5 5 8 14 18 18 16 14 12 9 7 6 6 6 6 5 4 4 5 7 7 7 7 7 7 7 6 5
0 0 0 0 0 0 0 0 1 1 2 1 0 0 1 2 3 3 5 7 6 4 5 10 16 20 20 19 17 15 12 9 7 7 7 6 4 3 3 5 7 8 8 8 8 8 8 8 8
0 0 0 0 0 0 0 0 0 1 2 1 1 0 0 1 3 4 5 7 6 5 7 12 17 19 20 19 17 17 14 11 10 9 8 6 4 3 3 4 5 6 7 7 8 8 8 8 8
0 0 0 0 0 0 0 0 1 2 3 3 2 1 1 1 3 5 6 6 6 6 8 13 16 17 18 18 17 18 17 14 12 11 9 7 5 4 3 3 3 4 5 6 7 8 8 7 7
0 0 0 0 0 0 0 1 2 3 4 3 3 3 3 2 4 6 7 6 6 5 7 11 14 14 15 16 17 18 17 14 13 12 10 8 6 5 4 3 3 3 3 5 6 7 7 7 6
0 0 0 0 0 0 0 1 2 4 5 4 4 4 4 4 5 6 7 7 7 6 6 9 12 13 13 14 15 15 15 13 11 10 9 8 7 5 4 3 3 3 4 5 6 6 6 6 6
0 0 0 0 0 0 0 0 2 3 5 5 5 5 6 6 7 9 10 11 12 9 8 10 12 13 13 13 12 12 12 11 10 9 8 7 6 4 3 2 2 4 6 7 7 7 7 7 6
0 0 0 0 0 0 0 0 1 2 4 5 5 6 8 10 12 14 15 17 17 14 11 11 12 13 13 12 11 10 9 10 10 9 8 7 5 4 3 3 5 6 7 8 9 9 9 8 6
0 0 0 0 0 0 0 0 1 1 2 4 4 6 10 13 15 17 18 19 19 17 15 12 13 14 13 12 12 10 8 8 10 10 10 8 6 4 4 6 8 7 7 9 10 10 10 9 7

GEFSSGP_con_probscp_252.txt.gz
Probability
7 10 21 30 24 9 1 0 0 0 0 0 0 0 0 0 0 0 0 0 0 0 0 0 0 0 0 0 0 0 1 1 1 2 3 3 3 1 0 0 0 0 1 2 1 2 2 2 1
9 16 27 28 16 5 0 0 0 0 0 0 0 0 0 0 0 0 0 0 0 0 0 0 0 0 0 0 0 0 1 1 2 4 4 3 3 2 1 0 1 1 2 2 1 1 1 1 1
15 23 28 20 8 1 0 0 0 0 0 0 0 0 0 0 0 0 0 0 0 0 0 0 0 0 0 0 0 0 1 2 4 5 4 3 3 3 1 1 2 3 3 2 0 0 0 0 0
23 27 23 11 3 0 0 0 0 0 0 0 0 0 0 0 0 0 0 0 0 0 0 0 0 0 0 0 0 0 1 2 4 5 4 4 3 3 2 2 2 3 4 2 0 0 0 0 0
29 26 16 4 0 0 0 0 0 0 0 0 0 0 0 0 0 0 0 0 0 0 0 0 0 0 0 1 1 2 3 3 4 5 5 5 4 3 1 1 2 4 4 2 0 0 0 0 0
27 20 9 2 0 0 0 0 0 0 0 0 0 0 0 0 0 0 0 0 0 1 1 1 0 0 0 1 2 4 4 4 4 5 6 6 4 2 1 2 4 5 4 2 0 0 0 0 0
19 11 4 1 0 0 0 0 0 0 0 0 0 0 0 0 0 0 0 0 0 2 2 2 1 1 0 1 2 3 4 4 5 6 6 5 3 2 2 2 4 5 5 3 1 0 0 0 0
9 6 2 1 0 0 0 0 0 0 0 0 0 0 0 0 0 0 0 0 0 1 2 3 3 1 0 0 1 3 3 3 4 6 8 6 4 3 3 2 3 3 4 3 1 1 0 0 0
3 2 1 0 0 0 0 0 0 0 0 0 0 0 0 0 0 0 0 0 0 0 2 4 3 2 1 1 3 3 2 2 4 7 7 7 5 4 3 3 2 2 3 3 3 2 1 0 0
2 1 0 0 0 0 0 0 0 0 0 0 0 0 0 0 0 0 0 0 0 0 2 3 2 2 2 3 4 3 3 3 5 5 4 4 5 4 2 3 3 2 2 2 3 3 2 0 0
1 0 0 0 0 0 0 0 0 0 0 0 0 0 0 0 0 0 0 0 0 0 1 2 1 1 2 3 4 4 5 6 5 3 1 2 3 2 2 3 3 1 1 2 2 2 1 0 0
0 0 0 0 0 0 0 0 0 0 0 0 0 0 0 0 0 0 0 0 0 0 0 1 0 0 1 3 4 5 7 7 7 5 2 1 1 0 1 2 2 1 1 2 2 1 1 0 0
0 0 0 0 0 0 0 0 0 0 0 0 0 0 0 0 0 0 1 1 1 1 1 2 1 2 3 5 5 5 7 8 7 6 3 1 0 1 1 2 3 2 2 3 3 2 1 1 1
0 0 0 0 0 0 0 0 0 0 0 0 0 0 0 0 0 0 2 3 4 3 2 3 3 5 6 6 6 6 6 7 6 5 3 2 2 3 3 3 4 4 4 4 4 4 3 3 3
0 0 0 0 0 0 0 0 0 0 1 0 0 1 1 1 0 0 1 4 5 5 4 4 5 7 9 8 7 5 5 5 6 4 3 3 3 5 6 5 4 5 5 6 5 5 4 4 4
0 0 0 0 0 0 0 1 0 0 1 0 1 2 2 2 1 0 1 3 6 7 8 7 8 10 11 13 10 5 4 6 5 5 5 5 4 4 5 6 7 6 6 7 6 6 5 4 4
0 0 0 0 0 0 0 0 0 0 1 1 1 3 3 3 1 0 1 3 7 10 11 12 13 14 16 17 13 8 8 8 7 6 7 5 3 3 5 8 9 8 7 7 6 6 6 4 4
0 0 0 0 0 0 1 1 1 0 1 2 3 3 4 4 3 2 3 5 9 13 15 16 17 18 19 19 16 14 13 11 10 10 8 5 3 4 6 10 10 9 8 7 7 6 6 5 5
0 0 0 0 0 0 2 3 2 1 0 1 3 4 6 7 8 8 8 10 14 19 20 19 20 20 20 18 18 18 18 14 12 12 10 7 5 5 7 10 10 9 9 9 7 6 6 6 6
0 0 0 0 0 0 1 3 3 1 0 1 2 5 8 10 13 15 15 15 20 26 26 23 22 22 20 18 18 19 19 16 14 14 13 11 8 7 7 8 9 9 9 8 7 6 6 6 5
0 0 0 0 0 0 1 2 2 2 1 1 2 6 9 11 15 19 20 20 25 31 29 26 27 25 20 17 16 18 19 18 18 18 16 14 12 10 8 7 8 8 7 6 5 6 7 6 5
0 0 0 0 0 0 0 1 2 2 2 1 2 5 9 11 14 18 22 24 27 29 30 33 35 31 24 18 15 16 17 18 18 18 17 15 13 11 9 8 8 7 7 5 5 5 6 6 6
0 0 0 0 0 0 0 0 1 3 3 1 1 4 7 11 14 17 23 27 26 26 30 39 44 39 29 21 16 15 15 15 15 14 13 12 12 11 10 10 9 8 7 7 6 5 5 6 7
0 0 0 0 0 0 0 0 2 4 4 2 1 2 5 10 14 17 23 29 29 27 31 41 49 44 33 24 19 17 15 14 13 11 11 11 12 12 11 10 10 9 8 7 7 6 6 7 8
0 0 0 0 0 0 0 1 3 6 4 2 1 1 4 9 15 18 23 31 34 32 32 41 49 45 32 25 23 21 18 16 14 13 11 11 13 15 13 11 10 9 7 5 6 8 8 8 8
0 0 0 0 0 0 0 1 4 6 5 2 1 1 4 10 16 20 24 31 35 34 34 42 47 41 29 24 25 24 21 18 16 16 14 13 14 16 17 14 11 9 6 4 5 8 10 10 9
0 0 0 1 0 0 0 2 3 5 4 3 1 2 6 12 17 21 24 29 33 35 38 44 46 39 29 25 26 25 23 21 20 20 19 17 15 16 18 17 14 11 8 6 6 8 10 11 10
0 0 0 0 0 0 0 2 4 5 4 3 4 6 9 13 17 20 24 28 33 36 40 45 46 40 32 29 26 25 24 24 24 23 22 21 18 16 16 17 16 13 11 8 7 8 9 10 9
0 0 0 0 0 0 0 1 3 5 5 5 8 10 12 14 17 20 23 27 32 37 41 45 45 41 34 31 28 25 24 24 24 23 22 22 21 18 18 18 16 14 12 10 9 9 8 8 8
0 0 0 0 0 0 0 1 2 5 6 8 12 14 14 16 18 21 24 27 30 35 40 43 44 41 35 32 29 26 23 22 22 21 20 22 22 20 19 20 16 12 10 9 9 9 7 7 8

GEFSSGP_con_probscp_258.txt.gz
Probability
13 7 1 0 0 0 0 0 0 0 0 0 0 0 0 0 0 0 0 0 0 0 0 0 0 0 1 2 3 2 1 0 0 0 0 0 0 0 0 0 0 0 0 0 0 0 0 0 0
7 4 1 0 0 0 0 0 0 0 0 0 0 0 0 0 0 0 0 0 0 0 0 0 0 0 0 1 2 2 1 0 0 0 0 0 0 0 0 0 0 0 0 0 0 0 0 0 0
2 2 1 0 0 0 0 0 0 0 0 0 0 0 0 0 0 0 0 0 0 0 0 0 0 0 0 0 1 1 0 1 1 1 1 0 0 0 0 0 0 0 0 0 0 0 0 0 0
3 3 2 1 0 0 0 0 0 0 0 0 0 0 0 0 0 0 0 0 0 0 0 0 0 0 0 0 0 1 1 2 2 2 2 1 0 0 0 0 1 1 0 0 0 0 0 0 0
5 5 3 1 0 0 0 0 0 0 0 0 0 0 0 0 0 0 0 0 0 0 0 0 0 0 0 0 1 2 3 3 3 3 3 2 1 1 0 1 2 1 0 0 1 2 1 0 0
8 6 4 2 0 0 0 0 0 0 0 0 0 0 0 0 0 0 0 0 0 0 0 0 0 0 0 0 2 4 4 3 4 3 3 3 2 1 0 1 1 1 0 1 2 3 2 0 0
9 7 3 1 0 0 0 0 0 0 0 0 0 0 0 0 0 0 0 0 0 0 0 1 0 0 0 0 2 4 5 5 5 4 4 3 2 1 1 1 2 1 1 2 3 2 1 0 0
7 6 3 1 0 0 0 0 0 0 0 0 0 0 1 1 0 0 0 0 0 0 0 0 0 0 0 0 2 4 6 7 6 6 5 3 1 1 2 3 4 4 3 3 3 1 0 0 0
6 4 2 0 0 0 0 0 0 0 0 0 0 1 2 2 1 0 0 0 0 0 0 0 0 0 1 1 2 4 5 5 5 5 4 2 1 1 2 4 6 6 5 3 2 1 0 0 0
4 3 1 0 0 0 0 0 0 0 0 0 0 2 3 3 2 1 0 0 0 0 0 0 0 0 0 0 1 1 2 2 2 2 1 1 0 0 1 3 4 5 4 3 2 1 1 1 1
2 1 0 0 0 0 0 0 0 1 0 0 0 1 3 3 2 1 0 0 0 0 0 0 0 0 0 0 0 0 0 0 0 0 0 0 0 0 0 1 2 2 3 3 3 3 2 2 2
1 0 0 0 0 0 0 0 0 0 0 0 0 1 3 3 3 1 0 0 0 0 1 2 2 1 0 0 0 0 0 0 0 0 0 0 0 0 0 0 0 1 2 2 2 2 2 2 2
1 0 0 0 0 0 0 0 0 0 0 0 1 2 3 3 3 1 0 0 0 1 2 3 4 3 1 1 0 0 0 0 0 0 0 0 0 0 0 0 0 0 1 1 1 1 1 1 1
1 0 0 0 0 0 0 0 0 0 0 0 1 3 3 3 2 0 0 0 0 1 3 4 5 4 3 2 1 0 0 0 0 0 0 0 0 0 0 0 0 0 0 0 0 0 0 0 1
0 0 0 0 0 0 0 0 0 0 0 2 3 5 4 3 1 0 0 0 0 1 4 6 7 5 4 3 2 1 0 0 0 0 0 0 0 0 0 0 0 0 0 0 0 0 1 1 2
0 0 0 0 0 0 0 0 0 0 1 3 6 7 6 3 1 0 0 0 1 3 6 8 8 6 4 3 3 1 0 0 0 0 0 0 0 0 0 0 0 0 0 1 1 1 2 3 3
0 0 0 0 0 0 0 0 0 0 1 3 7 9 8 4 2 1 1 2 3 6 9 10 8 6 5 4 3 2 0 0 0 0 0 0 0 0 0 0 0 0 1 2 2 3 3 3 3
0 0 0 0 0 0 0 0 0 0 1 2 6 8 8 6 4 4 4 6 8 10 12 11 9 8 7 6 4 2 1 0 0 1 1 0 0 0 0 0 0 0 1 2 3 3 3 3 3
0 0 0 0 0 0 0 1 1 0 1 3 5 8 9 9 8 8 9 12 14 15 15 14 12 12 11 9 6 3 2 1 1 2 2 1 1 1 0 0 0 0 1 2 3 2 2 2 3
0 0 0 0 0 0 0 1 1 0 1 4 6 8 11 12 12 11 14 17 19 18 17 16 15 14 14 11 7 5 4 2 2 4 3 2 2 2 1 0 0 0 1 2 1 1 1 2 2
0 0 0 0 0 0 0 1 1 0 1 4 7 8 10 12 12 13 17 21 22 19 18 17 16 14 12 9 7 5 4 3 2 3 3 2 3 3 2 1 1 2 2 2 1 1 1 2 3
0 0 1 0 0 0 0 0 0 0 1 4 6 7 9 10 10 12 16 20 20 20 19 17 15 12 9 7 6 4 3 3 3 3 2 2 4 5 4 3 3 3 3 3 2 2 3 3 3
0 0 0 0 0 0 0 0 0 0 2 4 6 8 9 10 9 11 15 19 20 20 20 18 14 11 9 7 5 4 3 3 5 5 4 2 3 5 5 4 3 4 3 3 3 3 3 3 2
0 0 0 0 0 0 0 0 0 0 2 4 6 9 11 12 11 12 15 20 22 23 23 20 16 13 10 7 5 4 4 4 5 6 5 4 5 6 5 4 3 3 3 3 3 3 3 2 1
0 0 0 0 0 0 0 0 0 1 2 4 6 9 12 13 12 12 15 20 23 25 25 22 17 13 11 8 6 5 5 6 6 6 5 6 6 6 4 3 3 3 3 3 3 3 2 1 0
0 0 0 0 0 0 0 0 0 1 4 5 7 9 12 13 11 10 13 17 20 23 25 22 17 13 11 9 8 7 7 8 8 7 6 6 7 6 4 3 2 3 3 3 3 3 1 0 0
0 0 0 0 0 0 0 0 0 2 4 6 7 10 13 12 10 9 12 15 17 20 23 22 18 15 14 13 11 10 10 9 9 8 7 7 7 6 4 3 3 4 4 4 3 2 1 0 0
0 0 0 0 0 0 0 0 0 1 4 7 9 12 14 12 9 10 13 15 16 19 21 21 19 17 16 15 15 13 12 11 10 9 7 6 5 4 3 3 4 5 5 4 3 1 0 0 0
0 0 0 0 0 0 0 1 1 3 5 8 10 12 13 13 11 12 14 16 17 19 20 20 19 17 15 15 15 14 13 12 11 10 7 4 2 1 1 2 3 4 4 3 3 1 0 0 0
0 0 0 0 0 0 1 2 3 4 6 9 11 12 13 13 14 15 15 16 18 19 20 19 19 16 14 14 14 14 13 12 12 11 7 3 1 0 0 0 2 3 2 2 3 1 0 0 0

GEFSSGP_con_probscp_264.txt.gz
Probability
1 1 0 0 0 0 0 0 0 0 0 0 0 0 0 0 0 0 0 0 0 0 1 2 3 3 2 2 3 2 0 0 0 0 0 0 0 1 2 2 4 5 4 1 0 0 0 0 0
1 0 0 0 0 0 0 0 0 0 0 0 0 0 0 0 0 0 0 0 0 0 1 2 3 3 3 3 3 2 1 1 1 1 0 0 0 0 1 1 3 3 2 0 0 0 0 0 0
0 0 1 2 1 1 0 0 0 0 0 0 0 0 0 0 0 0 0 0 0 0 1 1 1 2 3 3 3 3 3 2 2 2 1 0 0 0 0 0 1 1 0 0 0 0 0 0 0
0 1 2 3 3 2 1 0 0 0 0 0 0 0 0 0 0 0 0 0 0 0 0 0 0 1 3 3 3 3 3 3 3 2 1 0 0 0 0 0 0 0 0 0 0 0 0 0 0
0 1 2 3 3 2 1 0 0 0 0 0 0 0 0 0 0 0 0 0 0 0 0 0 0 1 2 3 3 2 2 3 3 2 1 0 0 0 0 0 0 0 0 0 0 0 0 0 0
0 1 2 2 2 2 1 0 0 0 0 0 0 0 0 0 0 0 0 0 0 0 0 0 0 1 2 3 2 1 1 1 2 1 0 0 0 0 0 0 0 0 0 0 0 0 0 0 0
1 2 3 3 2 1 0 0 0 0 0 0 0 0 0 0 0 0 0 0 0 0 0 0 0 1 2 2 2 1 1 2 2 2 1 0 0 0 0 0 0 0 0 0 0 0 0 0 0
1 2 3 2 1 0 0 0 0 0 0 0 0 0 0 0 0 0 0 0 0 0 0 0 0 0 1 1 2 2 2 3 4 3 2 1 0 0 0 0 1 1 0 0 0 0 0 0 0
1 2 3 2 0 0 0 0 0 0 0 1 1 1 0 1 1 0 0 0 0 0 0 0 0 0 0 0 1 1 1 3 4 3 3 2 0 0 0 1 2 2 1 0 0 0 0 0 0
2 3 3 2 0 0 0 0 0 0 0 1 2 2 1 2 2 1 0 0 0 0 0 0 0 0 0 0 0 0 1 2 3 3 2 1 0 0 0 1 2 2 1 0 0 0 0 0 0
3 3 3 2 0 0 0 0 0 0 0 2 3 2 1 2 3 2 1 0 0 0 0 0 0 0 0 0 0 0 0 1 2 2 1 1 1 0 0 1 1 1 1 1 1 1 1 1 0
2 2 2 1 0 0 0 0 0 0 1 2 3 2 1 1 2 2 1 0 0 0 0 0 0 0 0 0 0 0 0 1 1 1 1 1 1 0 0 0 1 1 2 2 2 2 2 2 1
1 1 1 1 0 0 0 0 0 1 2 3 3 1 0 0 1 1 0 0 0 0 0 0 0 0 0 0 0 0 0 0 0 0 0 1 1 0 0 0 0 2 3 3 3 3 3 3 3
0 0 0 0 0 0 0 0 0 1 2 3 3 1 1 0 0 0 0 0 0 0 0 0 0 0 0 0 0 0 0 0 0 0 0 0 0 0 0 0 0 1 2 3 3 3 3 3 3
0 0 0 0 0 0 0 0 0 1 2 3 3 2 1 0 0 0 0 0 0 0 0 0 0 0 0 0 0 0 0 1 1 1 1 1 1 0 0 0 0 0 1 2 2 2 2 2 1
0 0 0 0 0 0 0 0 0 1 2 2 2 1 1 0 0 0 0 0 0 0 0 0 1 1 0 0 0 0 1 2 2 2 2 2 2 1 0 0 0 0 0 1 1 1 1 0 0
0 0 0 0 0 0 0 0 0 0 1 1 1 0 0 0 0 0 0 0 0 1 1 1 3 3 1 1 0 0 1 3 3 3 3 3 3 2 1 1 1 0 0 0 1 1 1 0 0
0 0 0 0 0 0 0 0 0 0 0 0 0 1 1 1 1 1 1 0 1 2 3 4 5 5 3 2 1 1 2 3 3 3 4 4 4 3 1 1 2 1 0 0 1 2 1 0 0
0 0 0 0 0 0 0 0 0 0 0 0 0 1 2 3 2 2 2 1 1 2 4 6 7 5 4 3 3 3 3 3 4 4 5 6 5 4 2 2 3 2 1 0 1 2 2 1 0
0 0 0 0 0 0 0 0 0 0 0 0 0 1 2 2 2 2 2 1 1 2 5 6 5 4 3 3 3 3 3 4 4 5 6 6 6 5 3 3 3 2 1 1 2 3 2 1 0
0 0 0 0 0 0 0 0 0 0 0 0 0 0 1 1 1 1 1 1 0 2 4 6 5 4 3 3 3 3 3 3 4 5 6 6 6 5 5 4 3 2 2 2 3 3 3 1 0
0 0 0 0 0 0 0 0 0 0 0 0 0 0 0 0 0 0 0 0 0 1 4 5 5 4 4 3 3 3 3 3 3 4 6 6 6 6 4 3 2 3 3 3 3 3 2 1 1
0 0 0 0 0 0 0 0 0 0 0 0 0 0 0 0 0 0 0 1 2 2 4 5 5 4 3 3 3 3 3 3 4 4 6 6 6 4 2 1 2 3 4 3 3 3 1 1 0
0 0 0 0 0 0 0 0 0 0 0 0 0 1 1 1 1 1 2 3 4 6 6 5 5 4 3 3 3 3 3 4 4 5 6 6 4 2 1 0 1 2 3 3 3 2 1 0 0
0 0 0 0 0 0 0 0 0 0 0 0 1 2 2 3 4 5 5 5 6 8 9 7 6 5 4 4 3 3 3 4 4 5 6 6 4 3 1 0 0 1 2 3 2 1 0 0 0
0 0 0 0 0 0 0 0 0 0 0 0 1 2 3 4 5 7 7 6 7 9 11 9 8 7 6 5 4 3 3 3 4 4 6 6 6 4 2 2 1 0 1 2 1 0 0 0 0
0 0 0 0 0 0 0 0 0 0 0 1 2 3 4 4 5 5 6 6 7 10 12 11 10 9 8 6 5 4 3 3 3 4 5 6 6 4 3 2 1 1 1 1 0 0 0 0 0
0 0 0 0 0 0 0 0 0 0 1 2 3 5 6 5 5 5 5 5 6 9 11 11 10 10 9 8 7 6 4 4 3 4 5 6 5 4 3 1 1 1 1 1 0 0 0 0 0
0 0 0 0 0 0 0 0 1 2 2 3 4 5 6 5 5 5 6 5 5 7 9 10 10 10 10 9 8 7 5 5 4 4 6 6 4 3 2 1 0 0 0 0 0 0 0 0 0
0 0 0 0 0 0 0 1 2 3 3 3 4 4 4 5 5 6 6 6 5 6 7 8 9 10 10 9 8 7 6 6 5 5 6 6 4 2 1 0 0 0 0 1 1 1 0 0 0